Weather History for KPQL - August, 2013

Change the Weather History Date:

Monday, August 12, 2013

  Actual Average Record
Temperature  
Mean Temperature 80 °F -  
Max Temperature 86 °F 89 °F 96 °F (1972)
Min Temperature 75 °F 72 °F 63 °F (1967)
Cooling Degree Days 16    
Growing Degree Days 30 (Base 50)    
Moisture  
Dew Point 77 °F    
Average Humidity 91    
Maximum Humidity 100    
Minimum Humidity 77    
Precipitation  
Precipitation 0.71 in - - ()
Sea Level Pressure  
Sea Level Pressure 30.09 in    
Wind  
Wind Speed 1 mph (SSE)    
Max Wind Speed 8 mph    
Max Gust Speed 16 mph    
Visibility 8 miles    
Events Fog , Rain , Thunderstorm    
Averages and records for this station are not official NWS values.
T = Trace of Precipitation, MM = Missing Value Source: NWS Daily Summary

Daily Weather History Graph

Daily Weather History Graph

Search for Another Location

Airport or City:

Trip Planner

Search our weather history database for the weather conditions in past years. The results will help you decide how hot, cold, wet, or windy it might be!

Date:

Astronomy

Aug. 12, 2013 Rise Set
Actual Time 6:19 AM CDT 7:38 PM CDT
Civil Twilight 5:53 AM CDT 8:03 PM CDT
Nautical Twilight 5:23 AM CDT 8:34 PM CDT
Astronomical Twilight 4:51 AM CDT 9:05 PM CDT
Moon 11:40 AM CDT (8/12) 11:01 PM CDT (8/12)
Length of Visible Light 14h 10m
Length of Day
13h 19m
Waxing Crescent, 31% of the Moon is Illuminated
Aug 12
Waxing Crescent
Aug 14
First Quarter
Aug 20
Full
Aug 28
Last Quarter
Sep 5
New

Hourly Weather History & Observations

Time (CDT) Temp. Heat Index Dew Point Humidity Pressure Visibility Wind Dir Wind Speed Gust Speed Precip Events Conditions
12:53 AM 78.1 °F - 77.0 °F 96% 30.11 in 10.0 mi Calm Calm - N/A   Clear
1:53 AM 78.1 °F - 75.9 °F 93% 30.10 in 10.0 mi Calm Calm - N/A   Clear
2:53 AM 77.0 °F - 75.9 °F 96% 30.09 in 8.0 mi Calm Calm - N/A   Clear
3:53 AM 78.1 °F - 75.9 °F 93% 30.09 in 10.0 mi Calm Calm - N/A   Partly Cloudy
4:53 AM 77.0 °F - 75.9 °F 96% 30.09 in 10.0 mi Calm Calm - N/A   Clear
5:53 AM 75.9 °F - 75.0 °F 97% 30.09 in 9.0 mi Calm Calm - N/A   Clear
6:44 AM 78.8 °F - 77.0 °F 94% 30.10 in 2.0 mi Calm Calm - 0.04 in Rain , Thunderstorm Light Thunderstorms and Rain
6:53 AM 79.0 °F - 78.1 °F 97% 30.10 in 5.0 mi Calm Calm - 0.04 in Rain , Thunderstorm Light Thunderstorms and Rain
7:17 AM 78.8 °F - 78.8 °F 100% 30.09 in 8.0 mi Calm Calm - 0.00 in Rain Light Rain
7:53 AM 80.1 °F 86.4 °F 78.1 °F 94% 30.11 in 10.0 mi Calm Calm - 0.00 in   Partly Cloudy
8:05 AM 80.6 °F 88.1 °F 78.8 °F 94% 30.10 in 10.0 mi Calm Calm - N/A Thunderstorm Thunderstorm
8:08 AM 80.6 °F 88.1 °F 78.8 °F 94% 30.10 in 1.5 mi Calm Calm - 0.03 in Rain , Thunderstorm Heavy Thunderstorms and Rain
8:20 AM 78.8 °F - 75.2 °F 89% 30.11 in 0.8 mi South 8.1 mph 16.1 mph 0.24 in Rain , Thunderstorm Heavy Thunderstorms and Rain
8:29 AM 78.8 °F - 77.0 °F 94% 30.11 in 0.5 mi Calm Calm - 0.38 in Fog , Rain , Thunderstorm Heavy Thunderstorms and Rain
8:33 AM 80.6 °F 87.1 °F 77.0 °F 89% 30.11 in 2.0 mi Calm Calm - 0.38 in Rain , Thunderstorm Thunderstorms and Rain
8:40 AM 80.6 °F 88.1 °F 78.8 °F 94% 30.11 in 8.0 mi Calm Calm - 0.38 in Rain , Thunderstorm Light Thunderstorms and Rain
8:49 AM 80.6 °F 88.1 °F 78.8 °F 94% 30.11 in 10.0 mi Calm Calm - 0.38 in Rain Light Rain
8:53 AM 80.1 °F 86.4 °F 78.1 °F 94% 30.12 in 10.0 mi Calm Calm - 0.38 in Rain Light Rain
9:53 AM 81.0 °F 89.2 °F 79.0 °F 94% 30.12 in 10.0 mi Calm Calm - 0.00 in   Clear
10:16 AM 82.4 °F 92.4 °F 78.8 °F 89% 30.11 in 10.0 mi Calm Calm - N/A Thunderstorm Partly Cloudy
10:53 AM 82.9 °F 93.8 °F 79.0 °F 88% 30.13 in 10.0 mi Calm Calm - 0.00 in   Clear
11:19 AM 82.4 °F 94.0 °F 80.6 °F 94% 30.12 in 10.0 mi Calm Calm - N/A Thunderstorm Partly Cloudy
11:44 AM 84.2 °F 98.3 °F 80.6 °F 89% 30.11 in 10.0 mi Calm Calm - 0.00 in   Partly Cloudy
11:53 AM 84.0 °F 97.3 °F 80.1 °F 88% 30.12 in 10.0 mi NNE 3.5 mph - 0.00 in Thunderstorm Partly Cloudy
12:21 PM 82.4 °F 92.4 °F 78.8 °F 89% 30.10 in 10.0 mi SSE 6.9 mph - N/A Thunderstorm Thunderstorm
12:30 PM 82.4 °F 90.9 °F 77.0 °F 84% 30.11 in 10.0 mi SSE 6.9 mph - N/A Thunderstorm Thunderstorm
12:39 PM 80.6 °F 88.1 °F 78.8 °F 94% 30.12 in 1.5 mi South 5.8 mph - 0.10 in Rain , Thunderstorm Thunderstorms and Rain
12:42 PM 78.8 °F - 77.0 °F 94% 30.12 in 0.8 mi SSE 3.5 mph - 0.18 in Rain , Thunderstorm Heavy Rain
12:53 PM 80.1 °F 85.4 °F 75.9 °F 87% 30.12 in 2.5 mi East 3.5 mph - 0.24 in Rain , Thunderstorm Light Thunderstorms and Rain
1:00 PM 80.6 °F 87.1 °F 77.0 °F 89% 30.11 in 10.0 mi ESE 6.9 mph - 0.00 in Rain , Thunderstorm Light Thunderstorms and Rain
1:53 PM 78.1 °F - 75.0 °F 90% 30.10 in 10.0 mi ESE 5.8 mph - 0.00 in   Mostly Cloudy
2:03 PM 78.8 °F - 75.2 °F 89% 30.09 in 10.0 mi SE 6.9 mph - N/A Thunderstorm Mostly Cloudy
2:20 PM 78.8 °F - 73.4 °F 83% 30.08 in 10.0 mi ESE 4.6 mph - N/A   Scattered Clouds
2:53 PM 79.0 °F - 75.0 °F 88% 30.08 in 10.0 mi SE 3.5 mph - N/A   Clear
3:53 PM 84.0 °F 93.7 °F 77.0 °F 79% 30.06 in 10.0 mi Calm Calm - N/A   Clear
4:53 PM 86.0 °F 98.3 °F 78.1 °F 77% 30.05 in 10.0 mi Calm Calm - N/A   Clear
5:53 PM 84.9 °F 95.3 °F 77.0 °F 77% 30.05 in 10.0 mi SW 3.5 mph - N/A   Clear
6:53 PM 84.9 °F 96.6 °F 78.1 °F 80% 30.04 in 10.0 mi Calm Calm - N/A   Clear
7:53 PM 81.0 °F 88.6 °F 78.1 °F 91% 30.04 in 10.0 mi Calm Calm - N/A   Clear
8:53 PM 79.0 °F - 77.0 °F 94% 30.06 in 10.0 mi Calm Calm - N/A   Partly Cloudy
9:45 PM 78.8 °F - 77.0 °F 94% 30.06 in 10.0 mi West 6.9 mph - N/A   Mostly Cloudy
9:53 PM 80.1 °F 85.8 °F 77.0 °F 90% 30.07 in 4.0 mi West 4.6 mph - 0.05 in Rain Rain
10:04 PM 78.8 °F - 77.0 °F 94% 30.07 in 10.0 mi Calm Calm - 0.00 in   Mostly Cloudy
10:53 PM 78.1 °F - 77.0 °F 96% 30.05 in 7.0 mi Calm Calm - 0.00 in   Clear
11:53 PM 78.1 °F - 77.0 °F 96% 30.04 in 7.0 mi Calm Calm - N/A   Clear